www.pogodaiklimat.ru

Погода и климат >> Архив погоды >> Индия >> Bhuj-Rudramata


ПОГОДА в Bhuj-Rudramata

  • Прогноз погоды в Bhuj-Rudramata
  • Монитор погоды в Bhuj-Rudramata
  • Климат города

АРХИВ ПОГОДЫ в Bhuj-Rudramata

Время (UTC), дата Ветер
(напр.,м/с)
 
Видим.   Явления Облачность Т
(С)
Тd
(С)
f
(%)
Тe
(С)
Тes
(С)
Комфортность P
(гПа)
Po
(гПа)
Тmin
(С)
Tmax
(С)
R
(мм)
R24
(мм)
S
(см)
12 11.12 СЗ 3 4000 м ясно +25.0 +9.8 38 +26 +26 жарко 1011.4 1011.0 +27.4
15 11.12 штиль 0 4000 м ясно +21.0 +10.4 51 +23 +23 комфорт 1013.3 1013.0
18 11.12 штиль 0 4000 м ясно +18.0 +10.6 62 +18 +18 1013.8 1014.0
21 11.12 штиль 0 4000 м ясно +17.0 +11.5 70 +17 +17 1013.1 1013.0
00 12.12 штиль 0 4000 м ясно +16.0 +12.4 79 +16 +16 1013.2 1013.0
03 12.12 СЗ 1 4000 м ясно +16.6 +11.9 74 +17 +18 1016.2 1016.0 +12.5
06 12.12 штиль 0 4000 м ясно +22.0 +12.5 55 +25 +37 комфорт 1016.7 1017.0
09 12.12 нст 1 4000 м ясно +27.0 +9.8 34 +27 +37 жарко 1013.4 1013.0
12 12.12 нст 1 4000 м ясно +26.0 +10.7 38 +27 +27 жарко 1013.1 1013.0 +29.5
15 12.12 штиль 0 4000 м ясно +21.4 +8.5 44 +23 +23 комфорт 1014.6 1015.0
18 12.12 штиль 0 4000 м ясно +18.0 +12.6 71 +18 +18 1015.9 1016.0
21 12.12 штиль 0 4000 м ясно +17.0 +12.7 76 +17 +17 1015.8 1016.0
00 13.12 штиль 0 4000 м ясно +15.6 +12.7 83 +15 +15 1015.5 1016.0
03 13.12 штиль 0 2000 м дымка ясно +16.4 +12.0 75 +16 +17 1016.8 1017.0 +12.5
06 13.12 СЗ 2 4000 м ясно +24.0 +8.8 38 +25 +34 комфорт 1017.2 1017.0
09 13.12 нст 1 4000 м ясно +28.4 +7.2 26 +28 +37 жарко 1014.5 1015.0
12 13.12 СВ 1 4000 м ясно +28.0 +9.3 31 +28 +29 жарко 1014.1 1014.0 +30.0
15 13.12 штиль 0 4000 м ясно +21.0 +7.5 42 +22 +22 комфорт 1015.5 1016.0
18 13.12 штиль 0 4000 м ясно +18.4 +8.8 54 +19 +19 1016.4 1016.0
21 13.12 штиль 0 4000 м ясно +17.4 +11.1 66 +17 +17 1015.8 1016.0
00 14.12 штиль 0 4000 м ясно +14.4 +10.8 79 +14 +14 1015.6 1016.0
03 14.12 штиль 0 4000 м ясно +14.8 +8.5 66 +15 +16 1017.5 1018.0 +12.6
06 14.12 СВ 2 4000 м ясно +23.0 +7.8 38 +24 +33 комфорт 1018.2 1018.0
09 14.12 СВ 2 4000 м ясно +25.4 +7.8 33 +26 +34 жарко 1017.0 1017.0
12 14.12 СВ 2 4000 м ясно +25.0 +9.3 37 +26 +26 жарко 1015.8 1016.0 +27.4
15 14.12 штиль 0 4000 м ясно +20.0 +6.0 40 +21 +21 комфорт 1017.6 1018.0
18 14.12 нст 1 4000 м ясно +17.0 +10.2 64 +18 +18 1019.1 1019.0
21 14.12 штиль 0 4000 м ясно +15.0 +11.3 79 +15 +15 1018.6 1019.0
00 15.12 штиль 0 4000 м ясно +14.0 +11.4 84 +14 +14 1018.3 1018.0
03 15.12 штиль 0 4000 м 5/0
[Ci fib]
+12.0 +11.2 95 +11 +12 1019.1 1019.0 +9.8
06 15.12 СВ 2 4000 м ясно +20.0 +12.6 62 +23 +32 комфорт 1020.1 1020.0
09 15.12 СВ 3 4000 м ясно +23.6 +8.2 37 +24 +32 комфорт 1017.0 1017.0
12 15.12 СВ 2 4000 м ясно +23.6 +7.1 35 +24 +24 комфорт 1016.9 1017.0 +25.5
15 15.12 СВ 1 4000 м ясно +20.0 +5.4 38 +22 +22 комфорт 1017.9 1018.0
18 15.12 СЗ 3 4000 м ясно +17.0 +5.4 46 +17 +17 1019.6 1020.0
21 15.12 СЗ 2 4000 м ясно +14.8 +5.6 54 +15 +15 1019.0 1019.0
00 16.12 СЗ 2 4000 м ясно +14.8 +5.6 54 +15 +15 1019.0 1019.0
03 16.12 СВ 2 4000 м ясно +14.0 +7.1 63 +14 +15 1020.8 1021.0 +11.4
06 16.12 СВ 2 4000 м ясно +20.2 +7.4 43 +22 +31 комфорт 1020.8 1021.0
09 16.12 СВ 2 4000 м ясно +23.0 +4.4 30 +23 +31 комфорт 1017.7 1018.0
12 16.12 СВ 3 4000 м ясно +25.0 +9.3 37 +26 +26 жарко 1016.9 1017.0 +26.4
15 16.12 СВ 2 4000 м ясно +22.0 +7.4 39 +23 +23 комфорт 1017.6 1018.0
18 16.12 штиль 0 4000 м ясно +17.4 +11.1 66 +17 +17 1020.2 1020.0
21 16.12 штиль 0 4000 м ясно +15.2 +11.1 77 +15 +15 1019.7 1020.0
00 17.12 штиль 0 4000 м ясно +14.0 +11.4 84 +14 +14 1019.5 1020.0
03 17.12 СВ 2 4000 м ясно +14.0 +6.1 59 +14 +15 1020.3 1020.0 +11.6
06 17.12 СВ 3 4000 м ясно +23.4 +6.8 34 +24 +31 комфорт 1020.7 1021.0
09 17.12 СВ 1 4000 м ясно +27.4 +8.9 31 +27 +37 жарко 1017.8 1018.0
12 17.12 СВ 2 4000 м ясно +25.6 +10.2 38 +26 +27 жарко 1017.0 1017.0 +28.0
15 17.12 штиль 0 4000 м ясно +21.0 +11.3 54 +23 +23 комфорт 1018.8 1019.0
18 17.12 штиль 0 4000 м ясно +19.6 +10.8 57 +21 +21 комфорт 1020.0 1020.0
21 17.12 штиль 0 4000 м ясно +17.6 +12.2 71 +18 +18 1019.5 1020.0
00 18.12 штиль 0 4000 м ясно +16.6 +12.6 77 +17 +17 1019.3 1019.0
03 18.12 штиль 0 4000 м ясно +19.4 +14.4 73 +21 +22 комфорт 1020.3 1020.0 +15.8
06 18.12 СВ 2 4000 м ясно +27.0 +12.6 41 +29 +38 жарко 1020.9 1021.0

 

Местоположение метеостанции Bhuj-Rudramata (Gujarat, Индия): широта 23.25 долгота 69.67 высота над уровнем моря 80 м.

В архиве по умолчанию представлена погода в Bhuj-Rudramata за последнюю неделю. Архивные данные за месяц целиком и за предыдущие месяцы, начиная с января 2011 года, Вы можете получить, выбрав интересующий диапазон дат из раскрывающегося списка и нажав кнопку "Ввод!".

Внимание! Время в таблицах - всемирное. Для получения местного времени необходимо прибавить поправку, которая в Bhuj-Rudramata равна 5.5 ч.

Смотрите также архив погоды в соседних городах и на ближайших метеорологических станциях:

Погода в Kandla (Gujarat, Индия) (47 км)
Погода в New Kandla (Gujarat, Индия) (63 км)
Погода в Mandvi (Gujarat, Индия) (63 км)
Погода в Naliya (Gujarat, Индия) (84 км)
Погода в Okha (Gujarat, Индия) (103 км)
Погода в Dwarka (Gujarat, Индия) (115 км)
Погода в Rajkot (Gujarat, Индия) (155 км)
Погода в Badin (Пакистан) (172 км)
Погода в Porbandar (Gujarat, Индия) (178 км)
Погода в Surendranagar (Gujarat, Индия) (206 км)

Пояснения к столбцам:

Ветер - указаны скорость ветра в м/с - средняя за 10 мин, порывы в срок и между сроками (в фигурных скобках) и направление, откуда дует ветер: С - северный, СВ - северо-восточный, В - восточный, ЮВ - юго-восточный, Ю - южный, ЮЗ - юго-западный, З - западный, СЗ - северо-западный.
Видимость - горизонтальная дальность видимости в метрах или километрах. При видимости от 1 до 10 км при отсутствии осадков обычно наблюдается дымка, при ухудшении видимости до 1 км и менее - туман. В сухую погоду видимость может ухудшаться дымом, пылью или мглою.
Явления - указаны атмосферные явления, наблюдавшиеся в срок или в последний час перед сроком; фигурными скобками обозначены явления, наблюдавшиеся между сроками (за 1-3 часа до срока); квадратными скобками обозначены град или гололедные отложения с указанием их диаметра в мм.
Облачность - указаны через наклонную черту общая и нижняя облачность в баллах и высота нижней границы облаков в метрах; квадратными скобками обозначены формы облаков: Ci - перистые, Cs - перисто-слоистые, Cc - перисто-кучевые, Ac - высококучевые, As - высокослоистые, Sc - слоисто-кучевые, Ns - слоисто-дождевые, Cu - кучевые, Cb - кучево-дождевые. Подробнее классификацию облаков см. в Атласе облаков (PDF).
T - Температура воздуха - температура, измеренная на высоте 2 м над землей.
Td - Температура точки росы - температура, при понижении до которой содержащийся в воздухе водяной пар достигнет насыщения.
f - Относительная влажность воздуха - влажноcть воздуха, измеренная на высоте 2 м над землей.
Te - Эффективная температура - температура, которую ощущает одетый по сезону человек в тени. Характеристика душности погоды. При расчете учитывается влияние влажности воздуха и скорости ветра на теплоощущения человека.
Tes - Эффективная температура на солнце - температура, которую ощущает человек, с поправкой на солнечный нагрев. Характеристика знойности погоды. Зависит от высоты солнца над горизонтом, облачности и скорости ветра. Ночью, в пасмурную погоду, а также при ветре 12 м/с и более поправка равна нулю.
P - Атмосферное давление - приведенное к уровню моря атмосферное давление.
Po - Атмосферное давление - измеренное на уровне метеостанции атмосферное давление.
Tmin - Минимальная температура - минимум температуры воздуха на высоте 2 м над землей.
Tmax - Максимальная температура - максимум температуры воздуха на высоте 2 м над землей.
R - Количество осадков - Количество выпавших осадков за период времени, мм. При наведении курсора мыши на число - период времени, за который выпало указанное количество осадков.
R24 - Количество осадков - Количество выпавших осадков за 24 часа, мм.
S - Снежный покров - Высота снежного покрова, см. При наведении курсора мыши на число - состояние снежного покрова и степень покрытия местности в баллах.